Location: Byszew
(52.1813°N, 19.2693°E)
Time: 01:13:25
(UTC+00:00)

SPOT 3 Rocket - Pass Details

Date: 03 March 2021
Orbit: 778 x 795 km, 98.7° (Epoch: 11 April)

Event Time Altitude Azimuth Distance (km) Brightness Sun altitude
Exits shadow 18:38:02 44° 111° (ESE) 1,091 3.8 -20.8°
Maximum altitude 18:39:14 54° 67° (ENE) 965 3.7 -21.0°
Drops below altitude 10° 18:44:20 10° 352° (N) 2,377 6.4 -21.7°
Sets 18:46:42 0° 348° (NNW) 3,312 7.2 -22.1°
